TimeCST,TemperatureF,Dew PointF,Humidity,Sea Level PressureIn,VisibilityMPH,Wind Direction,Wind SpeedMPH,Gust SpeedMPH,PrecipitationIn,Events,Conditions,WindDirDegrees,DateUTC
12:53 AM,28.9,25.0,85,30.41,5.0,Calm,Calm,-,N/A,,Clear,0,2012-11-16 06:53:00
1:53 AM,26.1,24.1,92,30.42,4.0,Calm,Calm,-,N/A,,Clear,0,2012-11-16 07:53:00
2:53 AM,26.1,24.1,92,30.42,4.0,Calm,Calm,-,N/A,,Clear,0,2012-11-16 08:53:00
3:53 AM,26.1,24.1,92,30.43,3.0,Calm,Calm,-,N/A,,Clear,0,2012-11-16 09:53:00
4:35 AM,24.8,23.0,93,30.42,2.5,Calm,Calm,-,N/A,,Clear,0,2012-11-16 10:35:00
4:53 AM,26.1,23.0,88,30.44,2.5,Calm,Calm,-,N/A,,Clear,0,2012-11-16 10:53:00
5:05 AM,26.6,24.8,93,30.42,3.0,Calm,Calm,-,N/A,,Clear,0,2012-11-16 11:05:00
5:17 AM,26.6,24.8,93,30.41,2.5,Calm,Calm,-,N/A,,Clear,0,2012-11-16 11:17:00
5:53 AM,27.0,25.0,92,30.45,3.0,Calm,Calm,-,N/A,,Clear,0,2012-11-16 11:53:00
6:08 AM,24.8,23.0,93,30.42,2.5,Calm,Calm,-,N/A,,Clear,0,2012-11-16 12:08:00
6:38 AM,24.8,21.2,86,30.43,1.2,Calm,Calm,-,N/A,,Clear,0,2012-11-16 12:38:00
6:53 AM,26.1,23.0,88,30.46,1.8,Calm,Calm,-,N/A,,Clear,0,2012-11-16 12:53:00
7:06 AM,26.6,26.6,100,30.44,2.0,Calm,Calm,-,N/A,,Clear,0,2012-11-16 13:06:00
7:53 AM,30.9,30.0,96,30.48,2.0,Calm,Calm,-,N/A,,Clear,0,2012-11-16 13:53:00
8:23 AM,35.6,30.2,81,30.46,3.0,Calm,Calm,-,N/A,,Clear,0,2012-11-16 14:23:00
8:53 AM,39.0,32.0,76,30.48,4.0,SSW,3.5,-,N/A,,Haze,200,2012-11-16 14:53:00
9:53 AM,44.1,33.1,65,30.50,6.0,Calm,Calm,-,N/A,,Haze,0,2012-11-16 15:53:00
10:53 AM,46.9,28.9,50,30.49,9.0,Calm,Calm,-,N/A,,Clear,0,2012-11-16 16:53:00
11:53 AM,51.1,27.0,39,30.48,10.0,South,3.5,-,N/A,,Clear,190,2012-11-16 17:53:00
12:53 PM,53.1,27.0,37,30.47,10.0,South,3.5,-,N/A,,Clear,180,2012-11-16 18:53:00
1:53 PM,52.0,27.0,38,30.46,10.0,South,3.5,-,N/A,,Clear,180,2012-11-16 19:53:00
2:53 PM,52.0,27.0,38,30.48,10.0,Calm,Calm,-,N/A,,Clear,0,2012-11-16 20:53:00
3:53 PM,51.1,27.0,39,30.49,10.0,Calm,Calm,-,N/A,,Clear,0,2012-11-16 21:53:00
4:53 PM,45.0,28.0,52,30.49,10.0,Calm,Calm,-,N/A,,Clear,0,2012-11-16 22:53:00
5:53 PM,41.0,27.0,57,30.50,10.0,NE,3.5,-,N/A,,Clear,40,2012-11-16 23:53:00
6:53 PM,39.0,28.0,65,30.50,10.0,Calm,Calm,-,N/A,,Clear,0,2012-11-17 00:53:00
7:53 PM,37.9,28.9,70,30.50,10.0,Calm,Calm,-,N/A,,Clear,0,2012-11-17 01:53:00
8:53 PM,36.0,28.0,73,30.51,10.0,Calm,Calm,-,N/A,,Clear,0,2012-11-17 02:53:00
9:53 PM,34.0,27.0,75,30.50,8.0,Calm,Calm,-,N/A,,Clear,0,2012-11-17 03:53:00
10:53 PM,32.0,27.0,82,30.50,7.0,Calm,Calm,-,N/A,,Clear,0,2012-11-17 04:53:00
11:53 PM,30.9,27.0,85,30.51,7.0,Calm,Calm,-,N/A,,Clear,0,2012-11-17 05:53:00